When you browse on this site, cookies collect data to enhance your experience and personalize the content and advertising you see.
Visit our Privacy Policy to learn more. By continuing to use the site, you agree to this use of cookies and data.
  • en Suisse
  • Liste des pays
  • À 7 jours
  • Température de l'eau
  • Carte satellitaire
  • Carte météo
  • Widgets météo
  • user-avatar
    Se connecter

    Météo par heure à Dinajpur

    Ce jour, 25 Avril, Jeudi

    Heure Température Précipitation Vent Pression Humidité
    00:00 +32°C° 0 mm 2 m/s 753 mmHg 45%
    01:00 +32°C° 0 mm 2 m/s 753 mmHg 46%
    02:00 +31°C° 0 mm 1 m/s 753 mmHg 47%
    03:00 +31°C° 0 mm 1 m/s 752 mmHg 48%
    04:00 +30°C° 0 mm 1 m/s 753 mmHg 50%
    05:00 +30°C° 0 mm 1 m/s 753 mmHg 52%
    06:00 +30°C° 0 mm 1 m/s 753 mmHg 57%
    07:00 +32°C° 0 mm 1 m/s 753 mmHg 52%
    08:00 +33°C° 0 mm 1 m/s 754 mmHg 47%
    09:00 +36°C° 0 mm 2 m/s 754 mmHg 42%
    10:00 +38°C° 0 mm 2 m/s 753 mmHg 38%
    11:00 +39°C° 0 mm 1 m/s 753 mmHg 34%
    12:00 +39°C° 0 mm 2 m/s 754 mmHg 35%
    13:00 +40°C° 0 mm 1 m/s 753 mmHg 33%
    14:00 +41°C° 0 mm 1 m/s 752 mmHg 30%
    15:00 +41°C° 0 mm 1 m/s 751 mmHg 28%
    16:00 +41°C° 0 mm 1 m/s 751 mmHg 28%
    17:00 +41°C° 0 mm 1 m/s 751 mmHg 29%
    18:00 +37°C° 0 mm 0 m/s 751 mmHg 29%
    19:00 +39°C° 0 mm 1 m/s 751 mmHg 30%
    20:00 +39°C° 0 mm 1 m/s 751 mmHg 32%
    21:00 +37°C° 0 mm 1 m/s 751 mmHg 33%
    22:00 +37°C° 0 mm 2 m/s 751 mmHg 35%
    23:00 +36°C° 0 mm 2 m/s 751 mmHg 37%

    Demain, 26 Avril, Vendredi

    Heure Température Précipitation Vent Pression Humidité
    00:00 +35°C° 0 mm 2 m/s 751 mmHg 39%
    01:00 +35°C° 0 mm 2 m/s 751 mmHg 40%
    02:00 +33°C° 0 mm 1 m/s 751 mmHg 42%
    03:00 +33°C° 0 mm 1 m/s 750 mmHg 44%
    04:00 +33°C° 0 mm 1 m/s 751 mmHg 46%
    05:00 +32°C° 0 mm 2 m/s 751 mmHg 48%
    06:00 +32°C° 0 mm 2 m/s 751 mmHg 50%
    07:00 +34°C° 0.1 mm 2 m/s 752 mmHg 48%
    08:00 +35°C° 0.1 mm 2 m/s 752 mmHg 47%
    09:00 +37°C° 0.1 mm 2 m/s 753 mmHg 45%
    10:00 +38°C° 0 mm 2 m/s 753 mmHg 41%
    11:00 +40°C° 0 mm 2 m/s 752 mmHg 36%
    12:00 +42°C° 0 mm 3 m/s 752 mmHg 32%
    13:00 +41°C° 0 mm 2 m/s 752 mmHg 32%
    14:00 +41°C° 0 mm 2 m/s 751 mmHg 32%
    15:00 +40°C° 0 mm 1 m/s 750 mmHg 32%
    16:00 +40°C° 0 mm 2 m/s 749 mmHg 34%
    17:00 +39°C° 0 mm 3 m/s 749 mmHg 36%
    18:00 +38°C° 0 mm 4 m/s 749 mmHg 38%
    19:00 +37°C° 0 mm 4 m/s 749 mmHg 41%
    20:00 +36°C° 0 mm 4 m/s 750 mmHg 43%
    21:00 +35°C° 0 mm 4 m/s 751 mmHg 46%
    22:00 +35°C° 0 mm 4 m/s 751 mmHg 49%
    23:00 +34°C° 0 mm 4 m/s 751 mmHg 53%

    Après-demain, 27 Avril, Samedi

    Heure Température Précipitation Vent Pression Humidité
    00:00 +33°C° 0 mm 4 m/s 751 mmHg 57%
    01:00 +33°C° 0 mm 4 m/s 751 mmHg 58%
    02:00 +32°C° 0 mm 4 m/s 750 mmHg 58%
    03:00 +32°C° 0 mm 4 m/s 750 mmHg 59%
    04:00 +30°C° 0 mm 3 m/s 750 mmHg 62%
    05:00 +30°C° 0 mm 3 m/s 750 mmHg 64%
    06:00 +30°C° 0 mm 2 m/s 751 mmHg 66%
    07:00 +31°C° 0 mm 3 m/s 751 mmHg 61%
    08:00 +34°C° 0 mm 3 m/s 752 mmHg 56%
    09:00 +36°C° 0 mm 3 m/s 752 mmHg 52%
    10:00 +37°C° 0 mm 3 m/s 752 mmHg 45%
    11:00 +39°C° 0 mm 3 m/s 751 mmHg 39%
    12:00 +41°C° 0 mm 2 m/s 751 mmHg 33%
    13:00 +42°C° 0 mm 2 m/s 750 mmHg 29%
    14:00 +43°C° 0 mm 2 m/s 749 mmHg 26%
    15:00 +45°C° 0 mm 2 m/s 748 mmHg 22%
    16:00 +43°C° 0 mm 2 m/s 748 mmHg 23%
    17:00 +44°C° 0 mm 3 m/s 748 mmHg 24%
    18:00 +43°C° 0 mm 3 m/s 747 mmHg 25%
    19:00 +41°C° 0 mm 4 m/s 748 mmHg 35%
    20:00 +37°C° 0 mm 5 m/s 749 mmHg 46%
    21:00 +35°C° 0 mm 7 m/s 749 mmHg 56%
    22:00 +34°C° 0 mm 6 m/s 750 mmHg 57%
    23:00 +34°C° 0 mm 5 m/s 750 mmHg 58%

    28 Avril, Dimanche

    Heure Température Précipitation Vent Pression Humidité
    00:00 +33°C° 0 mm 5 m/s 750 mmHg 59%
    01:00 +33°C° 0 mm 4 m/s 749 mmHg 60%
    02:00 +31°C° 0 mm 3 m/s 749 mmHg 61%
    03:00 +31°C° 0 mm 2 m/s 749 mmHg 62%
    04:00 +31°C° 0 mm 2 m/s 749 mmHg 63%
    05:00 +31°C° 0 mm 2 m/s 749 mmHg 64%
    06:00 +30°C° 0 mm 2 m/s 749 mmHg 65%
    07:00 +33°C° 0 mm 3 m/s 750 mmHg 60%
    08:00 +35°C° 0 mm 3 m/s 751 mmHg 55%
    09:00 +36°C° 0 mm 4 m/s 751 mmHg 49%
    10:00 +38°C° 0 mm 3 m/s 751 mmHg 45%
    11:00 +39°C° 0 mm 3 m/s 751 mmHg 41%
    12:00 +42°C° 0 mm 3 m/s 750 mmHg 36%
    13:00 +43°C° 0 mm 3 m/s 749 mmHg 32%
    14:00 +43°C° 0 mm 2 m/s 748 mmHg 27%
    15:00 +45°C° 0 mm 2 m/s 747 mmHg 23%
    16:00 +43°C° 0 mm 2 m/s 747 mmHg 22%
    17:00 +43°C° 0 mm 2 m/s 747 mmHg 22%
    18:00 +43°C° 0 mm 2 m/s 747 mmHg 21%
    19:00 +41°C° 0 mm 4 m/s 747 mmHg 34%
    20:00 +39°C° 0 mm 5 m/s 748 mmHg 47%
    21:00 +36°C° 0 mm 7 m/s 749 mmHg 60%
    22:00 +35°C° 0 mm 7 m/s 749 mmHg 60%
    23:00 +34°C° 0 mm 6 m/s 749 mmHg 61%

    29 Avril, Lundi

    Heure Température Précipitation Vent Pression Humidité
    00:00 +34°C° 0 mm 5 m/s 749 mmHg 62%
    01:00 +33°C° 0 mm 4 m/s 749 mmHg 63%
    02:00 +33°C° 0 mm 4 m/s 748 mmHg 64%
    03:00 +33°C° 0 mm 4 m/s 748 mmHg 65%
    04:00 +33°C° 0 mm 4 m/s 748 mmHg 66%
    05:00 +32°C° 0 mm 4 m/s 749 mmHg 67%
    06:00 +32°C° 0 mm 4 m/s 749 mmHg 68%
    07:00 +33°C° 0 mm 5 m/s 750 mmHg 63%
    08:00 +34°C° 0 mm 5 m/s 751 mmHg 58%
    09:00 +36°C° 0 mm 5 m/s 751 mmHg 53%
    10:00 +37°C° 0 mm 4 m/s 751 mmHg 47%
    11:00 +40°C° 0 mm 4 m/s 750 mmHg 42%
    12:00 +40°C° 0 mm 3 m/s 750 mmHg 36%
    13:00 +42°C° 0 mm 2 m/s 749 mmHg 31%
    14:00 +43°C° 0 mm 2 m/s 748 mmHg 27%
    15:00 +44°C° 0 mm 1 m/s 747 mmHg 22%
    16:00 +44°C° 0 mm 1 m/s 747 mmHg 21%
    17:00 +43°C° 0 mm 2 m/s 747 mmHg 21%
    18:00 +43°C° 0 mm 2 m/s 747 mmHg 20%
    19:00 +41°C° 0 mm 4 m/s 747 mmHg 34%
    20:00 +39°C° 0 mm 6 m/s 748 mmHg 47%
    21:00 +35°C° 0 mm 7 m/s 749 mmHg 61%
    22:00 +35°C° 0 mm 7 m/s 749 mmHg 62%
    23:00 +34°C° 0 mm 6 m/s 749 mmHg 63%

    30 Avril, Mardi

    Heure Température Précipitation Vent Pression Humidité
    00:00 +33°C° 0 mm 5 m/s 749 mmHg 64%
    01:00 +33°C° 0 mm 4 m/s 749 mmHg 65%
    02:00 +33°C° 0 mm 3 m/s 748 mmHg 66%
    03:00 +33°C° 0 mm 3 m/s 748 mmHg 66%
    04:00 +31°C° 0 mm 3 m/s 748 mmHg 66%
    05:00 +31°C° 0 mm 3 m/s 749 mmHg 66%
    06:00 +32°C° 0 mm 4 m/s 749 mmHg 66%
    07:00 +33°C° 0 mm 4 m/s 750 mmHg 61%
    08:00 +35°C° 0 mm 4 m/s 750 mmHg 56%
    09:00 +36°C° 0 mm 4 m/s 751 mmHg 52%
    10:00 +37°C° 0 mm 4 m/s 750 mmHg 47%
    11:00 +40°C° 0 mm 4 m/s 750 mmHg 42%
    12:00 +40°C° 0 mm 3 m/s 749 mmHg 37%
    13:00 +42°C° 0 mm 3 m/s 748 mmHg 33%
    14:00 +44°C° 0 mm 3 m/s 747 mmHg 29%
    15:00 +45°C° 0 mm 3 m/s 746 mmHg 25%
    16:00 +45°C° 0 mm 2 m/s 746 mmHg 24%
    17:00 +45°C° 0 mm 2 m/s 746 mmHg 24%
    18:00 +44°C° 0 mm 1 m/s 745 mmHg 23%
    19:00 +40°C° 0.1 mm 3 m/s 746 mmHg 36%
    20:00 +37°C° 0.1 mm 5 m/s 747 mmHg 48%
    21:00 +34°C° 0.1 mm 7 m/s 748 mmHg 61%
    22:00 +34°C° 0.2 mm 6 m/s 748 mmHg 63%
    23:00 +33°C° 0.2 mm 5 m/s 748 mmHg 64%
    Voir plus